{"data":{"norad_id":63366,"epoch":"2026-09-20T07:47:59.898048Z","epoch_age_seconds":173990,"freshness":"STALE","line1":"1 63366U 25063D   26263.32499882  .00013341  00000+0  40526-3 0  9995","line2":"2 63366  53.1569 226.6554 0001227  90.2262 269.8881 15.34401206 84536","mean_motion":15.34401206,"eccentricity":0.0001227,"inclination_deg":53.1569,"raan_deg":226.6554,"arg_perigee_deg":90.2262,"mean_anomaly_deg":269.8881,"bstar":0.00040526,"rev_number":8453,"period_min":93.847684319403,"perigee_km":461.86028506564,"apogee_km":463.53902638096,"semimajor_km":6840.8366557233,"source":"CELESTRAK","updated_at":"2026-09-21T09:00:34.972413Z"}}